FW8607 Weather Reports


time (UTC)temp
F
wind
direction
speed
knots
gust
knots
rain 1hr
in
rain 24hr
in
rain mn
in
humidity
%
barometer
mb
20260902133018 58 203 0.9 3.5 0.00 0.00 0.00 94 1015.1
20260902130018 59 113 0.9 2.6 0.00 0.00 0.00 93 1014.8
20260902123018 60 113 2.6 5.2 0.00 0.00 0.00 93 1014.7
20260902120018 61 113 2.6 5.2 0.00 0.00 0.00 91 1014.7
20260902113038 61 158 0.9 3.5 0.00 0.00 0.00 91 1015.2
20260902110017 62 68 0.9 3.5 0.00 0.00 0.00 91 1015.2
20260902103018 62 0.0 0.0 0.00 0.00 0.00 91 1015.5
20260902100018 62 0.0 0.0 0.00 0.00 0.00 91 1015.7
20260902093020 62 0.0 0.0 0.00 0.00 0.00 91 1015.7
20260902090039 62 158 0.9 3.5 0.00 0.00 0.00 91 1015.9
20260902083019 62 158 0.9 3.5 0.00 0.00 0.00 90 1015.9
20260902080019 63 0.0 0.0 0.00 0.00 0.00 90 1016.1
20260902073019 63 0.0 0.0 0.00 0.00 0.00 89 1015.9
20260902070019 64 270 0.9 1.7 0.00 0.00 0.00 89 1015.6
20260902063019 64 270 1.7 3.5 0.00 0.00 0.00 89 1015.5
20260902060019 64 270 1.7 3.5 0.00 0.00 0.00 87 1015.2
20260902053019 65 248 1.7 3.5 0.00 0.00 0.00 86 1015.1
20260902050039 66 248 2.6 3.5 0.00 0.00 0.00 85 1014.9
20260902043019 67 248 2.6 4.3 0.00 0.00 0.00 84 1014.7
20260902040019 68 248 2.6 4.3 0.00 0.00 0.00 82 1014.2
20260902033019 69 270 2.6 5.2 0.00 0.00 0.00 80 1013.7
20260902030019 70 270 5.2 7.8 0.00 0.00 0.00 78 1013.3
20260902023018 72 248 6.1 10.4 0.00 0.00 0.00 74 1013.0
20260902020038 75 248 6.1 10.4 0.00 0.00 0.00 68 1013.1
20260902013018 77 248 6.1 10.4 0.00 0.00 0.00 61 1013.3
20260902010018 79 248 6.1 13.0 0.00 0.00 0.00 57 1013.4
20260902003018 81 248 6.1 12.2 0.00 0.00 0.00 53 1013.5
20260902000018 81 248 8.7 13.9 0.00 0.00 0.00 53 1013.6
20260901233018 83 270 7.8 14.8 0.00 0.00 0.00 49 1013.8
20260901230018 83 248 8.7 15.6 0.00 0.00 0.00 51 1013.8
20260901223018 84 248 8.7 16.5 0.00 0.00 0.00 49 1013.8
20260901220018 85 270 8.7 16.5 0.00 0.00 0.00 48 1013.8
20260901213038 85 270 7.8 14.8 0.00 0.00 0.00 47 1014.0
20260901210018 85 248 7.8 16.5 0.00 0.00 0.00 51 1014.1
20260901203018 85 270 7.0 16.5 0.00 0.00 0.00 52 1014.3
20260901200017 84 293 7.8 13.9 0.00 0.00 0.00 51 1014.6
20260901193018 84 315 7.0 12.2 0.00 0.00 0.00 53 1014.8
20260901190018 82 338 5.2 11.3 0.00 0.00 0.00 57 1014.8
20260901183019 81 293 4.3 10.4 0.00 0.00 0.00 59 1015.1
20260901180019 77 338 3.5 8.7 0.00 0.00 0.00 65 1015.1
20260901173039 75 315 4.3 11.3 0.00 0.00 0.00 70 1015.3
20260901170019 72 338 5.2 9.6 0.00 0.00 0.00 76 1015.0
20260901163040 70 315 4.3 8.7 0.00 0.00 0.00 83 1015.0
20260901160019 67 293 3.5 8.7 0.00 0.00 0.00 92 1014.4
20260901153019 65 315 3.5 7.0 0.00 0.00 0.00 95 1014.3
20260901150039 64 293 1.7 7.0 0.00 0.00 0.00 95 1014.1
20260901143019 62 90 1.7 3.5 0.00 0.00 0.00 95 1013.9
20260901140019 62 90 2.6 6.1 0.00 0.00 0.00 94 1013.8